This is the latest recevied weather packets stored in our database for station/object N1IJV-10. If no packets are shown the sender has not sent any weather packets the latest 10 day(s).
| Time | Temp. | Humidity | Pressure | Rain* | Wind** | Luminosity | Snow |
|---|---|---|---|---|---|---|---|
| 1778031452 | 10.56° C | 62% | 1008.6 hPa | 0 mm | - | 0 W/m² | - |
| 1778031149 | 10.56° C | 58% | 1008.6 hPa | 0 mm | - | 0 W/m² | - |
| 1778030845 | 10.56° C | 57% | 1008.6 hPa | 0 mm | - | 0 W/m² | - |
| 1778030543 | 11.11° C | 58% | 1008.3 hPa | 0 mm | - | 0 W/m² | - |
| 1778030240 | 11.11° C | 58% | 1008.2 hPa | 0 mm | - | 0 W/m² | - |
| 1778029936 | 11.11° C | 57% | 1008.2 hPa | 0 mm | - | 0 W/m² | - |
| 1778029635 | 11.11° C | 55% | 1008.2 hPa | 0 mm | - | 0 W/m² | - |
| 1778029332 | 11.11° C | 55% | 1008.4 hPa | 0 mm | - | 0 W/m² | - |
| 1778029029 | 11.11° C | 56% | 1008.1 hPa | 0 mm | - | 0 W/m² | - |
| 1778028726 | 11.67° C | 54% | 1008.2 hPa | 0 mm | - | 0 W/m² | - |
| 1778028421 | 11.67° C | 50% | 1008.1 hPa | 0 mm | - | 1 W/m² | - |
| 1778028119 | 11.67° C | 50% | 1008 hPa | 0 mm | - | 2 W/m² | - |
| 1778027815 | 11.67° C | 49% | 1007.9 hPa | 0 mm | - | 3 W/m² | - |
| 1778027511 | 11.67° C | 48% | 1007.9 hPa | 0 mm | - | 3 W/m² | - |
| 1778027207 | 11.67° C | 49% | 1007.6 hPa | 0 mm | - | 6 W/m² | - |
| 1778026904 | 11.67° C | 47% | 1007.8 hPa | 0 mm | - | 9 W/m² | - |
| 1778026599 | 11.67° C | 46% | 1007.7 hPa | 0 mm | - | 14 W/m² | - |
| 1778026297 | 12.22° C | 49% | 1007.8 hPa | 0 mm | - | 17 W/m² | - |
| 1778025994 | 12.22° C | 47% | 1008.1 hPa | 0 mm | - | 14 W/m² | - |
| 1778025691 | 12.22° C | 48% | 1007.8 hPa | 0 mm | - | 15 W/m² | - |
| 1778025389 | 12.22° C | 47% | 1007.8 hPa | 0 mm | - | 16 W/m² | - |
| 1778025086 | 12.22° C | 50% | 1007.7 hPa | 0 mm | - | 23 W/m² | - |
| 1778024778 | 12.22° C | 47% | 1007.9 hPa | 0 mm | - | 25 W/m² | - |
| 1778024474 | 12.22° C | 46% | 1007.6 hPa | 0 mm | - | 26 W/m² | - |
| 1778024172 | 12.22° C | 49% | 1007.8 hPa | 0 mm | - | 28 W/m² | - |
* Rain latest hour (hover to see other rain measurements)
** Current wind speed in m/s (hover to see current wind gust speed)